{"data":{"norad_id":68579,"epoch":"2026-05-24T19:00:02.064384Z","epoch_age_seconds":90085,"freshness":"FRESH","line1":"1 68579U 26072G   26144.79169056  .00013198  00000+0  36367-3 0  9991","line2":"2 68579  51.8773 289.8833 0001836 299.3582  60.7221 15.37452493  7788","mean_motion":15.37452493,"eccentricity":0.0001836,"inclination_deg":51.8773,"raan_deg":289.8833,"arg_perigee_deg":299.3582,"mean_anomaly_deg":60.7221,"bstar":0.00036367,"rev_number":778,"period_min":93.661430616965,"perigee_km":452.39128663005,"apogee_km":454.89991720148,"semimajor_km":6831.7826019158,"source":"CELESTRAK","updated_at":"2026-05-25T13:38:07.947543Z"}}